When you browse on this site, cookies collect data to enhance your experience and personalize the content and advertising you see.
Visit our Privacy Policy to learn more. By continuing to use the site, you agree to this use of cookies and data.
  • en Belgique
  • Liste des pays
  • À 7 jours
  • Température de l'eau
  • Carte satellitaire
  • Carte météo
  • Widgets météo
  • user-avatar
    Se connecter

    Météo par heure à Dunkerque

    Ce jour, 17 Février, Dimanche

    Heure Température Précipitation Vent Pression Humidité
    00:00 +7°C° 0 mm 3 m/s 767 mmHg 85%
    01:00 +5°C° 0 mm 4 m/s 766 mmHg 85%
    02:00 +5°C° 0 mm 4 m/s 766 mmHg 85%
    03:00 +5°C° 0 mm 4 m/s 765 mmHg 85%
    04:00 +5°C° 0 mm 5 m/s 765 mmHg 85%
    05:00 +5°C° 0 mm 5 m/s 765 mmHg 84%
    06:00 +5°C° 0 mm 5 m/s 764 mmHg 83%
    07:00 +5°C° 0 mm 6 m/s 764 mmHg 78%
    08:00 +7°C° 0 mm 6 m/s 764 mmHg 73%
    09:00 +6°C° 0 mm 7 m/s 763 mmHg 67%
    10:00 +9°C° 0 mm 7 m/s 763 mmHg 62%
    11:00 +11°C° 0 mm 6 m/s 763 mmHg 57%
    12:00 +14°C° 0 mm 5 m/s 763 mmHg 51%
    13:00 +14°C° 0 mm 5 m/s 763 mmHg 52%
    14:00 +14°C° 0 mm 5 m/s 762 mmHg 53%
    15:00 +14°C° 0 mm 6 m/s 762 mmHg 54%
    16:00 +13°C° 0 mm 5 m/s 762 mmHg 61%
    17:00 +10°C° 0 mm 5 m/s 763 mmHg 67%
    18:00 +9°C° 0 mm 5 m/s 763 mmHg 74%
    19:00 +8°C° 0 mm 5 m/s 763 mmHg 77%
    20:00 +8°C° 0 mm 5 m/s 763 mmHg 80%
    21:00 +7°C° 0 mm 4 m/s 763 mmHg 83%
    22:00 +7°C° 0 mm 4 m/s 763 mmHg 85%
    23:00 +7°C° 0 mm 4 m/s 763 mmHg 87%

    Demain, 18 Février, Lundi

    Heure Température Précipitation Vent Pression Humidité
    00:00 +6°C° 0 mm 4 m/s 763 mmHg 88%
    01:00 +6°C° 0 mm 4 m/s 763 mmHg 89%
    02:00 +6°C° 0 mm 4 m/s 763 mmHg 90%
    03:00 +6°C° 0 mm 4 m/s 763 mmHg 92%
    04:00 +6°C° 0 mm 4 m/s 763 mmHg 92%
    05:00 +5°C° 0 mm 4 m/s 763 mmHg 92%
    06:00 +5°C° 0 mm 4 m/s 763 mmHg 93%
    07:00 +6°C° 0 mm 4 m/s 763 mmHg 90%
    08:00 +6°C° 0 mm 4 m/s 763 mmHg 87%
    09:00 +7°C° 0 mm 4 m/s 763 mmHg 85%
    10:00 +8°C° 0 mm 4 m/s 763 mmHg 80%
    11:00 +11°C° 0 mm 4 m/s 762 mmHg 75%
    12:00 +12°C° 0 mm 4 m/s 762 mmHg 70%
    13:00 +12°C° 0 mm 4 m/s 762 mmHg 68%
    14:00 +13°C° 0 mm 4 m/s 761 mmHg 66%
    15:00 +13°C° 0 mm 4 m/s 761 mmHg 64%
    16:00 +11°C° 0 mm 4 m/s 761 mmHg 72%
    17:00 +10°C° 0 mm 4 m/s 761 mmHg 80%
    18:00 +7°C° 0 mm 4 m/s 761 mmHg 87%
    19:00 +7°C° 0.2 mm 4 m/s 761 mmHg 88%
    20:00 +7°C° 0.2 mm 5 m/s 761 mmHg 89%
    21:00 +7°C° 0.2 mm 5 m/s 762 mmHg 90%
    22:00 +7°C° 0.1 mm 5 m/s 762 mmHg 90%
    23:00 +7°C° 0.1 mm 5 m/s 762 mmHg 91%

    Après-demain, 19 Février, Mardi

    Heure Température Précipitation Vent Pression Humidité
    00:00 +7°C° 0.1 mm 6 m/s 762 mmHg 91%
    01:00 +6°C° 0 mm 5 m/s 762 mmHg 91%
    02:00 +6°C° 0 mm 5 m/s 762 mmHg 90%
    03:00 +5°C° 0 mm 5 m/s 763 mmHg 90%
    04:00 +5°C° 0 mm 5 m/s 763 mmHg 89%
    05:00 +5°C° 0 mm 5 m/s 763 mmHg 88%
    06:00 +3°C° 0 mm 6 m/s 763 mmHg 87%
    07:00 +4°C° 0 mm 6 m/s 764 mmHg 84%
    08:00 +6°C° 0 mm 5 m/s 764 mmHg 81%
    09:00 +6°C° 0 mm 5 m/s 764 mmHg 79%
    10:00 +7°C° 0 mm 5 m/s 765 mmHg 74%
    11:00 +8°C° 0 mm 6 m/s 765 mmHg 69%
    12:00 +9°C° 0 mm 6 m/s 765 mmHg 65%
    13:00 +9°C° 0 mm 6 m/s 765 mmHg 64%
    14:00 +9°C° 0 mm 6 m/s 765 mmHg 63%
    15:00 +9°C° 0 mm 5 m/s 765 mmHg 61%
    16:00 +8°C° 0 mm 5 m/s 765 mmHg 69%
    17:00 +7°C° 0 mm 5 m/s 765 mmHg 76%
    18:00 +6°C° 0 mm 5 m/s 765 mmHg 83%
    19:00 +5°C° 0 mm 5 m/s 766 mmHg 85%
    20:00 +5°C° 0 mm 4 m/s 766 mmHg 87%
    21:00 +5°C° 0 mm 4 m/s 766 mmHg 89%
    22:00 +5°C° 0 mm 4 m/s 766 mmHg 89%
    23:00 +4°C° 0 mm 4 m/s 766 mmHg 89%

    20 Février, Mercredi

    Heure Température Précipitation Vent Pression Humidité
    00:00 +3°C° 0 mm 5 m/s 766 mmHg 89%
    01:00 +3°C° 0 mm 5 m/s 766 mmHg 88%
    02:00 +3°C° 0 mm 5 m/s 766 mmHg 88%
    03:00 +3°C° 0 mm 5 m/s 765 mmHg 88%
    04:00 +2°C° 0 mm 5 m/s 765 mmHg 86%
    05:00 +2°C° 0 mm 5 m/s 765 mmHg 85%
    06:00 +2°C° 0 mm 5 m/s 765 mmHg 84%
    07:00 +3°C° 0 mm 6 m/s 765 mmHg 81%
    08:00 +4°C° 0 mm 6 m/s 765 mmHg 78%
    09:00 +5°C° 0 mm 6 m/s 765 mmHg 75%
    10:00 +7°C° 0 mm 6 m/s 766 mmHg 72%
    11:00 +8°C° 0 mm 6 m/s 766 mmHg 68%
    12:00 +10°C° 0 mm 6 m/s 766 mmHg 64%
    13:00 +10°C° 0 mm 6 m/s 766 mmHg 66%
    14:00 +10°C° 0 mm 6 m/s 766 mmHg 67%
    15:00 +10°C° 0 mm 6 m/s 765 mmHg 69%
    16:00 +9°C° 0 mm 6 m/s 766 mmHg 74%
    17:00 +8°C° 0 mm 6 m/s 766 mmHg 79%
    18:00 +7°C° 0 mm 5 m/s 766 mmHg 84%
    19:00 +7°C° 0 mm 5 m/s 766 mmHg 85%
    20:00 +7°C° 0 mm 5 m/s 767 mmHg 86%
    21:00 +7°C° 0 mm 5 m/s 767 mmHg 86%
    22:00 +7°C° 0 mm 5 m/s 767 mmHg 86%
    23:00 +7°C° 0 mm 5 m/s 767 mmHg 86%

    21 Février, Jeudi

    Heure Température Précipitation Vent Pression Humidité
    00:00 +8°C° 0 mm 6 m/s 768 mmHg 86%
    01:00 +7°C° 0 mm 5 m/s 768 mmHg 88%
    02:00 +7°C° 0 mm 5 m/s 768 mmHg 90%
    03:00 +6°C° 0 mm 5 m/s 768 mmHg 92%
    04:00 +6°C° 0 mm 5 m/s 768 mmHg 93%
    05:00 +6°C° 0 mm 5 m/s 769 mmHg 93%
    06:00 +6°C° 0 mm 5 m/s 769 mmHg 94%
    07:00 +6°C° 0 mm 5 m/s 769 mmHg 91%
    08:00 +7°C° 0 mm 5 m/s 770 mmHg 89%
    09:00 +8°C° 0 mm 5 m/s 770 mmHg 87%
    10:00 +9°C° 0 mm 5 m/s 770 mmHg 82%
    11:00 +10°C° 0 mm 5 m/s 770 mmHg 78%
    12:00 +12°C° 0 mm 5 m/s 771 mmHg 73%
    13:00 +12°C° 0 mm 5 m/s 771 mmHg 73%
    14:00 +13°C° 0 mm 4 m/s 771 mmHg 72%
    15:00 +13°C° 0 mm 4 m/s 770 mmHg 71%
    16:00 +11°C° 0 mm 4 m/s 771 mmHg 76%
    17:00 +10°C° 0 mm 4 m/s 771 mmHg 82%
    18:00 +8°C° 0 mm 3 m/s 771 mmHg 87%
    19:00 +8°C° 0 mm 3 m/s 772 mmHg 87%
    20:00 +8°C° 0 mm 3 m/s 772 mmHg 86%
    21:00 +8°C° 0 mm 3 m/s 773 mmHg 86%
    22:00 +7°C° 0 mm 2 m/s 773 mmHg 87%
    23:00 +7°C° 0 mm 2 m/s 773 mmHg 87%

    22 Février, Vendredi

    Heure Température Précipitation Vent Pression Humidité
    00:00 +8°C° 0 mm 1 m/s 774 mmHg 88%
    01:00 +8°C° 0 mm 1 m/s 774 mmHg 88%
    02:00 +7°C° 0 mm 1 m/s 774 mmHg 89%
    03:00 +6°C° 0 mm 0 m/s 774 mmHg 89%
    04:00 +7°C° 0 mm 1 m/s 774 mmHg 89%
    05:00 +7°C° 0 mm 1 m/s 774 mmHg 89%
    06:00 +7°C° 0 mm 1 m/s 775 mmHg 89%
    07:00 +8°C° 0 mm 1 m/s 775 mmHg 85%
    08:00 +9°C° 0 mm 1 m/s 776 mmHg 82%
    09:00 +10°C° 0 mm 1 m/s 776 mmHg 78%
    10:00 +10°C° 0 mm 2 m/s 776 mmHg 74%
    11:00 +12°C° 0 mm 3 m/s 776 mmHg 70%
    12:00 +13°C° 0 mm 4 m/s 776 mmHg 66%
    13:00 +13°C° 0 mm 3 m/s 776 mmHg 67%
    14:00 +14°C° 0 mm 3 m/s 776 mmHg 67%
    15:00 +14°C° 0 mm 3 m/s 776 mmHg 68%
    16:00 +13°C° 0 mm 3 m/s 776 mmHg 74%
    17:00 +12°C° 0 mm 3 m/s 776 mmHg 80%
    18:00 +10°C° 0 mm 3 m/s 776 mmHg 87%
    19:00 +10°C° 0 mm 3 m/s 776 mmHg 88%
    20:00 +9°C° 0 mm 3 m/s 776 mmHg 89%
    21:00 +8°C° 0 mm 3 m/s 777 mmHg 90%
    22:00 +8°C° 0 mm 3 m/s 777 mmHg 90%
    23:00 +7°C° 0 mm 3 m/s 777 mmHg 90%
    Voir plus